Weather History for Tampa Macdill AFB, FL

Change the Weather History Date:

Saturday, December 22, 2012

  Actual Average Record
Temperature  
Mean Temperature 50 °F -  
Max Temperature 61 °F 68 °F 83 °F (2013)
Min Temperature 39 °F 50 °F 39 °F (2012)
Degree Days  
Heating Degree Days 15    
Moisture  
Dew Point 34 °F    
Average Humidity 56    
Maximum Humidity 87    
Minimum Humidity 27    
Precipitation  
Precipitation 0.00 in - - ()
Sea Level Pressure  
Sea Level Pressure 30.26 in    
Wind  
Wind Speed 9 mph (North)    
Max Wind Speed 13 mph    
Max Gust Speed 22 mph    
Visibility 10 miles    
Events      
Averages and records for this station are not official NWS values.
T = Trace of Precipitation, MM = Missing Value Source: NWS Daily Summary

Daily Weather History Graph

Daily Weather History Graph

Search for Another Location

Airport:

Trip Planner

Search our weather history database for the weather conditions in past years. The results will help you decide how hot, cold, wet, or windy it might be!

Date:

Astronomy

Dec. 22, 2012 Rise Set
Actual Time 7:17 AM EST 5:40 PM EST
Civil Twilight 6:51 AM EST 6:06 PM EST
Nautical Twilight 6:22 AM EST 6:35 PM EST
Astronomical Twilight 5:53 AM EST 7:04 PM EST
Moon 1:43 PM EST (12/22) 2:17 AM EST (12/22)
Length of Visible Light 11h 14m
Length of Day
10h 22m
Waxing Gibbous, 73% of the Moon is Illuminated
Dec 22
Waxing Gibbous
Dec 28
Full
Jan 4
Last Quarter
Jan 11
New
Jan 18
First Quarter

Hourly Weather History & Observations

Time (EST) Temp. Windchill Dew Point Humidity Pressure Visibility Wind Dir Wind Speed Gust Speed Precip Events Conditions
12:55 AM 53.4 °F - 36.7 °F 53% 30.22 in 10.0 mi North 10.4 mph 19.6 mph N/A   Clear
1:55 AM 52.7 °F - 35.6 °F 52% 30.24 in 10.0 mi North 11.5 mph 17.3 mph N/A   Clear
2:55 AM 52.3 °F - 36.0 °F 54% 30.23 in 10.0 mi North 12.7 mph 21.9 mph N/A   Clear
3:55 AM 51.4 °F - 36.0 °F 56% 30.23 in 10.0 mi North 12.7 mph 17.3 mph N/A   Clear
4:55 AM 49.1 °F - 35.2 °F 59% 30.23 in 10.0 mi ENE 9.2 mph - N/A   Clear
5:55 AM 41.4 °F 37.6 °F 34.3 °F 76% 30.25 in 10.0 mi NE 5.8 mph - N/A   Clear
6:55 AM 40.6 °F 36.7 °F 32.7 °F 73% 30.27 in 10.0 mi NE 5.8 mph - N/A   Clear
7:55 AM 41.2 °F 38.2 °F 32.4 °F 71% 30.29 in 10.0 mi NE 4.6 mph - N/A   Clear
8:55 AM 48.0 °F - 32.0 °F 54% 30.32 in 10.0 mi NE 5.8 mph - N/A   Clear
9:55 AM 53.4 °F - 32.9 °F 46% 30.33 in 10.0 mi NNE 11.5 mph - N/A   Clear
10:55 AM 56.5 °F - 34.0 °F 43% 30.32 in 10.0 mi North 10.4 mph - N/A   Clear
11:55 AM 59.5 °F - 29.8 °F 32% 30.30 in 10.0 mi North 11.5 mph 16.1 mph N/A   Clear
12:55 PM 61.3 °F - 27.1 °F 27% 30.27 in 10.0 mi North 9.2 mph - N/A   Clear
1:55 PM 61.3 °F - 30.2 °F 31% 30.25 in 10.0 mi North 10.4 mph - N/A   Clear
2:55 PM 60.4 °F - 28.8 °F 30% 30.24 in 10.0 mi NNW 11.5 mph - N/A   Clear
3:55 PM 59.9 °F - 31.3 °F 34% 30.23 in 10.0 mi NNW 6.9 mph - N/A   Clear
4:55 PM 58.6 °F - 33.8 °F 39% 30.24 in 10.0 mi NNW 6.9 mph - N/A   Clear
5:55 PM 52.9 °F - 36.0 °F 53% 30.24 in 10.0 mi NNW 4.6 mph - N/A   Clear
6:55 PM 48.9 °F - 35.4 °F 60% 30.25 in 10.0 mi NNW 5.8 mph - N/A   Clear
7:55 PM 47.1 °F - 37.8 °F 70% 30.26 in 10.0 mi North 3.5 mph - N/A   Clear
8:55 PM 47.1 °F - 39.7 °F 76% 30.27 in 10.0 mi North 5.8 mph - N/A   Clear
9:55 PM 42.1 °F 40.2 °F 35.1 °F 76% 30.27 in 10.0 mi NNE 3.5 mph - N/A   Clear
10:55 PM 39.9 °F 35.8 °F 36.1 °F 86% 30.27 in 10.0 mi East 5.8 mph - N/A   Clear
11:55 PM 39.7 °F 36.5 °F 36.1 °F 87% 30.27 in 10.0 mi NE 4.6 mph - N/A   Clear